| time (UTC) | temp F | wind direction | speed knots | gust knots | rain 1hr in | rain 24hr in | rain mn in | humidity % | barometer mb |
| 20260903060659 | 64 | 274 | 0.0 | 0.0 | 0.00 | 0.00 | 0.00 | 99 | 1067.9 |
| 20260903055658 | 64 | 265 | 0.0 | 0.0 | 0.00 | 0.00 | 0.00 | 99 | 1068.2 |
| 20260903054657 | 64 | 272 | 2.6 | 4.3 | 0.00 | 0.00 | 0.00 | 99 | 1068.7 |
| 20260903053654 | 64 | 264 | 0.9 | 0.9 | 0.00 | 0.00 | 0.00 | 99 | 1068.4 |
| 20260903052651 | 64 | 268 | 3.5 | 4.3 | 0.00 | 0.00 | 0.00 | 99 | 1068.4 |
| 20260903051647 | 64 | 273 | 0.9 | 0.9 | 0.00 | 0.00 | 0.00 | 99 | 1068.4 |
| 20260903050643 | 64 | 266 | 2.6 | 4.3 | 0.00 | 0.00 | 0.00 | 99 | 1068.4 |
| 20260903045643 | 64 | 241 | 0.0 | 0.9 | 0.00 | 0.00 | 0.00 | 99 | 1068.4 |
| 20260903044641 | 64 | 274 | 0.9 | 0.9 | 0.00 | 0.00 | 0.00 | 99 | 1068.7 |
| 20260903043640 | 64 | 277 | 0.9 | 1.7 | 0.00 | 0.00 | 0.00 | 99 | 1068.8 |
| 20260903042638 | 64 | 274 | 1.7 | 1.7 | 0.00 | 0.00 | 0.00 | 99 | 1069.1 |
| 20260903041636 | 64 | 272 | 2.6 | 2.6 | 0.00 | 0.00 | 0.00 | 99 | 1068.9 |
| 20260903040636 | 65 | 287 | 6.1 | 7.0 | 0.00 | 0.00 | 0.00 | 99 | 1068.5 |
| 20260903035633 | 65 | 268 | 2.6 | 2.6 | 0.00 | 0.21 | 0.21 | 99 | 1068.5 |
| 20260903034629 | 65 | 296 | 2.6 | 2.6 | 0.00 | 0.21 | 0.21 | 99 | 1068.5 |
| 20260903033626 | 65 | 271 | 2.6 | 2.6 | 0.00 | 0.21 | 0.21 | 99 | 1068.3 |
| 20260903032627 | 65 | 273 | 0.0 | 0.0 | 0.00 | 0.21 | 0.21 | 99 | 1068.0 |
| 20260903031623 | 65 | 287 | 2.6 | 4.3 | 0.07 | 0.21 | 0.21 | 99 | 1067.9 |
| 20260903030620 | 65 | 284 | 0.9 | 1.7 | 0.00 | 0.20 | 0.20 | 99 | 1067.7 |
| 20260903025616 | 64 | 292 | 2.6 | 2.6 | 0.12 | 0.20 | 0.20 | 99 | 1068.4 |
| 20260903024612 | 64 | 297 | 3.5 | 4.3 | 0.05 | 0.18 | 0.18 | 99 | 1068.0 |
| 20260903023608 | 65 | 301 | 1.7 | 2.6 | 0.19 | 0.16 | 0.16 | 99 | 1067.4 |
| 20260903022608 | 64 | 275 | 3.5 | 4.3 | 0.17 | 0.13 | 0.13 | 99 | 1069.0 |
| 20260903021608 | 64 | 290 | 3.5 | 4.3 | 0.12 | 0.10 | 0.10 | 99 | 1069.3 |
| 20260903020604 | 65 | 274 | 5.2 | 7.0 | 0.12 | 0.07 | 0.07 | 99 | 1069.5 |
| 20260903015559 | 65 | 265 | 0.9 | 0.9 | 0.12 | 0.05 | 0.05 | 99 | 1069.2 |
| 20260903014554 | 65 | 243 | 0.9 | 1.7 | 0.07 | 0.03 | 0.03 | 99 | 1069.4 |
| 20260903013555 | 65 | 210 | 2.6 | 2.6 | 0.05 | 0.02 | 0.02 | 99 | 1069.1 |
| 20260903012554 | 65 | 212 | 2.6 | 2.6 | 0.00 | 0.01 | 0.01 | 99 | 1069.4 |
| 20260903011554 | 65 | 241 | 2.6 | 4.3 | 0.07 | 0.01 | 0.01 | 99 | 1069.3 |
| 20260903010549 | 65 | 219 | 4.3 | 6.1 | 0.00 | 0.00 | 0.00 | 99 | 1069.6 |
| 20260903005548 | 65 | 200 | 2.6 | 4.3 | 0.00 | 0.00 | 0.00 | 99 | 1070.0 |
| 20260903004544 | 65 | 216 | 3.5 | 5.2 | 0.00 | 0.00 | 0.00 | 99 | 1069.8 |
| 20260903003540 | 65 | 229 | 3.5 | 5.2 | 0.00 | 0.00 | 0.00 | 99 | 1069.6 |
| 20260903002536 | 66 | 215 | 3.5 | 4.3 | 0.00 | 0.00 | 0.00 | 99 | 1069.7 |
| 20260903001531 | 66 | 223 | 1.7 | 2.6 | 0.00 | 0.00 | 0.00 | 99 | 1069.9 |
| 20260903000526 | 66 | 249 | 1.7 | 1.7 | 0.00 | 0.00 | 0.00 | 99 | 1069.9 |
| 20260902235525 | 66 | 202 | 2.6 | 4.3 | 0.00 | 0.00 | 0.00 | 99 | 1070.4 |
| 20260902234520 | 66 | 201 | 3.5 | 5.2 | 0.00 | 0.00 | 0.00 | 99 | 1070.2 |
| 20260902233519 | 66 | 216 | 3.5 | 5.2 | 0.00 | 0.00 | 0.00 | 99 | 1070.2 |
| 20260902232519 | 67 | 244 | 1.7 | 2.6 | 0.00 | 0.00 | 0.00 | 99 | 1069.3 |
| 20260902231514 | 67 | 238 | 2.6 | 4.3 | 0.00 | 0.00 | 0.00 | 99 | 1068.9 |
| 20260902230514 | 67 | 221 | 2.6 | 2.6 | 0.00 | 0.00 | 0.00 | 98 | 1068.4 |
| 20260902225509 | 67 | 194 | 7.0 | 8.7 | 0.00 | 0.00 | 0.00 | 98 | 1068.5 |
| 20260902224508 | 67 | 189 | 5.2 | 7.0 | 0.00 | 0.00 | 0.00 | 97 | 1069.0 |
| 20260902223506 | 68 | 204 | 1.7 | 1.7 | 0.00 | 0.00 | 0.00 | 97 | 1068.9 |
| 20260902222504 | 68 | 203 | 4.3 | 5.2 | 0.00 | 0.00 | 0.00 | 97 | 1068.9 |
| 20260902221503 | 68 | 199 | 1.7 | 1.7 | 0.00 | 0.00 | 0.00 | 97 | 1069.1 |
| 20260902220459 | 68 | 169 | 4.3 | 6.1 | 0.00 | 0.00 | 0.00 | 97 | 1069.4 |
| 20260902215455 | 69 | 201 | 2.6 | 5.2 | 0.00 | 0.00 | 0.00 | 96 | 1070.3 |
| 20260902214450 | 69 | 238 | 1.7 | 1.7 | 0.00 | 0.00 | 0.00 | 96 | 1070.5 |
| 20260902213446 | 69 | 228 | 1.7 | 1.7 | 0.00 | 0.00 | 0.00 | 96 | 1071.5 |
| 20260902212446 | 70 | 282 | 1.7 | 1.7 | 0.00 | 0.00 | 0.00 | 95 | 1071.7 |
| 20260902211444 | 70 | 194 | 0.9 | 1.7 | 0.00 | 0.00 | 0.00 | 94 | 1071.4 |
| 20260902210445 | 70 | 268 | 0.0 | 0.0 | 0.00 | 0.00 | 0.00 | 94 | 1071.5 |
| 20260902205444 | 70 | 226 | 2.6 | 4.3 | 0.00 | 0.00 | 0.00 | 94 | 1071.5 |
| 20260902204444 | 70 | 199 | 1.7 | 1.7 | 0.00 | 0.00 | 0.00 | 93 | 1071.2 |
| 20260902203441 | 71 | 297 | 0.9 | 1.7 | 0.00 | 0.00 | 0.00 | 93 | 1071.6 |
| 20260902202436 | 70 | 249 | 1.7 | 2.6 | 0.00 | 0.00 | 0.00 | 93 | 1071.3 |
| 20260902201434 | 71 | 218 | 2.6 | 2.6 | 0.00 | 0.00 | 0.00 | 92 | 1071.6 |
| 20260902200429 | 71 | 244 | 2.6 | 2.6 | 0.00 | 0.00 | 0.00 | 92 | 1071.5 |
| 20260902195426 | 71 | 252 | 1.7 | 1.7 | 0.00 | 0.00 | 0.00 | 91 | 1071.5 |
| 20260902194425 | 72 | 242 | 1.7 | 1.7 | 0.00 | 0.00 | 0.00 | 90 | 1071.5 |
| 20260902193422 | 72 | 211 | 3.5 | 5.2 | 0.00 | 0.00 | 0.00 | 88 | 1071.2 |
| 20260902192420 | 72 | 207 | 6.1 | 7.0 | 0.00 | 0.00 | 0.00 | 88 | 1071.4 |
| 20260902191420 | 72 | 202 | 4.3 | 6.1 | 0.00 | 0.00 | 0.00 | 87 | 1071.2 |
| 20260902190416 | 73 | 243 | 1.7 | 1.7 | 0.00 | 0.00 | 0.00 | 85 | 1071.6 |
| 20260902185414 | 71 | 203 | 5.2 | 7.0 | 0.00 | 0.00 | 0.00 | 89 | 1071.3 |
| 20260902184409 | 71 | 156 | 3.5 | 5.2 | 0.00 | 0.00 | 0.00 | 91 | 1071.2 |
| 20260902183408 | 71 | 145 | 5.2 | 7.0 | 0.00 | 0.00 | 0.00 | 91 | 1071.5 |
| 20260902182406 | 71 | 196 | 2.6 | 4.3 | 0.00 | 0.00 | 0.00 | 91 | 1071.9 |
| 20260902181402 | 70 | 151 | 2.6 | 2.6 | 0.00 | 0.00 | 0.00 | 92 | 1072.0 |
| 20260902180358 | 70 | 193 | 2.6 | 4.3 | 0.00 | 0.00 | 0.00 | 93 | 1072.2 |
| 20260902175354 | 70 | 257 | 1.7 | 1.7 | 0.00 | 0.00 | 0.00 | 95 | 1072.1 |
| 20260902174353 | 68 | 221 | 1.7 | 1.7 | 0.00 | 0.00 | 0.00 | 97 | 1072.1 |
| 20260902173347 | 66 | 246 | 1.7 | 1.7 | 0.00 | 0.00 | 0.00 | 99 | 1072.2 |
| 20260902172347 | 66 | 195 | 2.6 | 4.3 | 0.00 | 0.00 | 0.00 | 99 | 1072.4 |
| 20260902171344 | 66 | 194 | 3.5 | 5.2 | 0.00 | 0.00 | 0.00 | 99 | 1072.4 |
| 20260902170341 | 66 | 205 | 1.7 | 1.7 | 0.00 | 0.00 | 0.00 | 99 | 1072.5 |
| 20260902165341 | 66 | 219 | 0.9 | 0.9 | 0.00 | 0.00 | 0.00 | 99 | 1072.6 |
| 20260902164337 | 66 | 253 | 1.7 | 1.7 | 0.00 | 0.00 | 0.00 | 99 | 1072.5 |
| 20260902163336 | 66 | 255 | 0.9 | 0.9 | 0.00 | 0.00 | 0.00 | 99 | 1072.6 |
| 20260902162336 | 66 | 260 | 0.9 | 0.9 | 0.00 | 0.00 | 0.00 | 99 | 1072.5 |
| 20260902161332 | 66 | 244 | 0.9 | 0.9 | 0.00 | 0.00 | 0.00 | 99 | 1072.4 |
| 20260902160329 | 66 | 228 | 0.9 | 1.7 | 0.00 | 0.00 | 0.00 | 99 | 1072.3 |
| 20260902155326 | 66 | 179 | 1.7 | 1.7 | 0.00 | 0.00 | 0.00 | 99 | 1072.6 |
| 20260902154323 | 66 | 239 | 1.7 | 1.7 | 0.00 | 0.00 | 0.00 | 99 | 1072.6 |
| 20260902153320 | 66 | 239 | 2.6 | 2.6 | 0.00 | 0.00 | 0.00 | 99 | 1072.8 |
| 20260902152318 | 66 | 173 | 2.6 | 2.6 | 0.00 | 0.00 | 0.00 | 99 | 1072.8 |
| 20260902151314 | 66 | 194 | 1.7 | 2.6 | 0.00 | 0.00 | 0.00 | 99 | 1072.7 |
| 20260902150311 | 66 | 199 | 2.6 | 4.3 | 0.00 | 0.00 | 0.00 | 99 | 1072.5 |
| 20260902145306 | 66 | 175 | 4.3 | 6.1 | 0.00 | 0.00 | 0.00 | 99 | 1072.9 |
| 20260902144303 | 66 | 211 | 1.7 | 1.7 | 0.00 | 0.00 | 0.00 | 99 | 1073.1 |
| 20260902143258 | 66 | 190 | 0.9 | 1.7 | 0.00 | 0.00 | 0.00 | 99 | 1073.0 |
| 20260902142256 | 65 | 184 | 3.5 | 5.2 | 0.00 | 0.00 | 0.00 | 99 | 1073.0 |
| 20260902141252 | 66 | 208 | 0.9 | 1.7 | 0.00 | 0.00 | 0.00 | 99 | 1072.9 |
| 20260902140247 | 66 | 238 | 0.9 | 0.9 | 0.00 | 0.00 | 0.00 | 99 | 1073.3 |
| 20260902135242 | 66 | 219 | 1.7 | 1.7 | 0.00 | 0.00 | 0.00 | 99 | 1073.1 |
| 20260902134237 | 66 | 272 | 0.0 | 0.9 | 0.00 | 0.00 | 0.00 | 99 | 1073.3 |
| 20260902133237 | 66 | 243 | 1.7 | 2.6 | 0.00 | 0.00 | 0.00 | 99 | 1073.3 |
| 20260902132234 | 65 | 198 | 2.6 | 4.3 | 0.00 | 0.00 | 0.00 | 99 | 1072.7 |
| 20260902131232 | 65 | 233 | 0.9 | 0.9 | 0.00 | 0.00 | 0.00 | 99 | 1073.0 |
| 20260902130227 | 65 | 260 | 0.9 | 0.9 | 0.00 | 0.00 | 0.00 | 99 | 1073.1 |
| 20260902125224 | 65 | 256 | 0.0 | 0.0 | 0.00 | 0.00 | 0.00 | 99 | 1073.4 |
| 20260902124221 | 66 | 243 | 0.9 | 0.9 | 0.00 | 0.00 | 0.00 | 99 | 1073.1 |
| 20260902123218 | 65 | 248 | 0.9 | 0.9 | 0.00 | 0.00 | 0.00 | 99 | 1073.0 |
| 20260902122213 | 65 | 251 | 0.9 | 0.9 | 0.00 | 0.00 | 0.00 | 99 | 1072.9 |
| 20260902121208 | 65 | 247 | 0.9 | 0.9 | 0.00 | 0.00 | 0.00 | 99 | 1072.6 |
| 20260902120206 | 65 | 176 | 3.5 | 5.2 | 0.00 | 0.00 | 0.00 | 99 | 1072.6 |
| 20260902115202 | 66 | 248 | 1.7 | 1.7 | 0.00 | 0.00 | 0.00 | 99 | 1072.6 |
| 20260902114159 | 66 | 207 | 1.7 | 1.7 | 0.00 | 0.00 | 0.00 | 99 | 1072.4 |
| 20260902113155 | 66 | 191 | 1.7 | 1.7 | 0.00 | 0.00 | 0.00 | 99 | 1072.6 |
| 20260902112152 | 66 | 232 | 0.9 | 1.7 | 0.00 | 0.00 | 0.00 | 99 | 1072.3 |
| 20260902111148 | 66 | 253 | 0.9 | 1.7 | 0.00 | 0.00 | 0.00 | 99 | 1072.1 |
| 20260902110146 | 66 | 236 | 0.9 | 0.9 | 0.00 | 0.00 | 0.00 | 99 | 1072.3 |
| 20260902105141 | 66 | 200 | 2.6 | 2.6 | 0.00 | 0.00 | 0.00 | 99 | 1072.6 |
| 20260902104137 | 66 | 259 | 0.0 | 0.0 | 0.00 | 0.00 | 0.00 | 99 | 1072.6 |
| 20260902103132 | 66 | 233 | 0.9 | 0.9 | 0.00 | 0.00 | 0.00 | 99 | 1072.5 |
| 20260902102131 | 66 | 220 | 0.9 | 0.9 | 0.00 | 0.00 | 0.00 | 99 | 1072.8 |
| 20260902101131 | 66 | 246 | 0.0 | 0.0 | 0.00 | 0.00 | 0.00 | 99 | 1072.6 |
| 20260902100127 | 65 | 199 | 0.9 | 0.9 | 0.00 | 0.00 | 0.00 | 99 | 1072.4 |
| 20260902095126 | 65 | 259 | 0.0 | 0.0 | 0.00 | 0.00 | 0.00 | 99 | 1072.8 |
| 20260902094123 | 65 | 275 | 0.0 | 0.0 | 0.00 | 0.00 | 0.00 | 99 | 1072.8 |
| 20260902093118 | 66 | 217 | 0.9 | 0.9 | 0.00 | 0.00 | 0.00 | 99 | 1072.6 |
| 20260902092113 | 66 | 226 | 0.0 | 0.9 | 0.00 | 0.00 | 0.00 | 99 | 1072.6 |
| 20260902091110 | 66 | 204 | 0.9 | 0.9 | 0.00 | 0.00 | 0.00 | 99 | 1072.7 |
| 20260902090105 | 65 | 155 | 1.7 | 1.7 | 0.00 | 0.00 | 0.00 | 99 | 1072.7 |
| 20260902085100 | 66 | 220 | 0.9 | 0.9 | 0.00 | 0.00 | 0.00 | 99 | 1072.7 |
| 20260902084058 | 66 | 177 | 0.9 | 1.7 | 0.00 | 0.00 | 0.00 | 99 | 1072.8 |
| 20260902083053 | 66 | 179 | 2.6 | 2.6 | 0.00 | 0.00 | 0.00 | 99 | 1072.6 |
| 20260902082051 | 65 | 169 | 1.7 | 1.7 | 0.00 | 0.00 | 0.00 | 99 | 1072.8 |
| 20260902081047 | 65 | 193 | 2.6 | 2.6 | 0.00 | 0.00 | 0.00 | 99 | 1072.8 |
| 20260902080045 | 65 | 216 | 0.9 | 0.9 | 0.00 | 0.00 | 0.00 | 99 | 1072.6 |
| 20260902075040 | 65 | 184 | 0.9 | 1.7 | 0.00 | 0.00 | 0.00 | 99 | 1072.6 |
| 20260902074036 | 65 | 125 | 2.6 | 2.6 | 0.00 | 0.00 | 0.00 | 99 | 1072.8 |
| 20260902073034 | 65 | 186 | 0.9 | 1.7 | 0.00 | 0.00 | 0.00 | 99 | 1072.6 |
| 20260902072032 | 65 | 145 | 2.6 | 2.6 | 0.00 | 0.00 | 0.00 | 99 | 1072.8 |
| 20260902071028 | 64 | 156 | 1.7 | 1.7 | 0.00 | 0.00 | 0.00 | 99 | 1072.7 |
| 20260902070023 | 64 | 225 | 0.9 | 0.9 | 0.00 | 0.00 | 0.00 | 99 | 1072.7 |
| 20260902065018 | 64 | 195 | 1.7 | 1.7 | 0.00 | 0.00 | 0.00 | 99 | 1072.5 |
| 20260902064015 | 64 | 250 | 0.9 | 0.9 | 0.00 | 0.00 | 0.00 | 99 | 1072.5 |
| 20260902063010 | 64 | 206 | 0.9 | 0.9 | 0.00 | 0.00 | 0.00 | 99 | 1072.7 |
| 20260902062010 | 63 | 238 | 0.0 | 0.9 | 0.00 | 0.00 | 0.00 | 99 | 1072.6 |
| 20260902061006 | 62 | 293 | 0.0 | 0.0 | 0.00 | 0.00 | 0.00 | 99 | 1072.7 |